ATLAS CENTAUR 2 1 00694U 63047A 26036.16718493 .00001702 00000+0 19590-3 0 9991 2 00694 30.3551 17.3799 0548110 153.7070 209.2462 14.11977027127022 THOR AGENA D R/B 1 00733U 64002A 26036.49601654 .00000336 00000+0 13692-3 0 9992 2 00733 99.1228 48.0806 0032786 354.0202 6.0585 14.33999784233687 SL-3 R/B 1 00877U 64053B 26036.45904218 .00000492 00000+0 11940-3 0 9992 2 00877 65.0763 65.7277 0078127 302.4608 56.8954 14.61333910262089 SL-8 R/B 1 02802U 67045B 26036.32647396 .00000373 00000+0 11069-3 0 9993 2 02802 74.0099 48.5274 0062975 63.0373 297.7197 14.45591152 84342 SL-8 R/B 1 03230U 68040B 26036.36331006 .00005915 00000+0 43920-3 0 9995 2 03230 74.0321 19.7299 0025496 212.9204 147.0398 15.03007419 85151 OAO 2 1 03597U 68110A 26036.49665425 .00000429 00000+0 12080-3 0 9996 2 03597 34.9935 84.9597 0006048 297.3051 62.7024 14.47287932 14436 ISIS 1 1 03669U 69009A 26036.32370961 .00000467 00000+0 32132-3 0 9996 2 03669 88.4552 158.8352 1707836 154.4669 215.1808 11.30399721344874 SERT 2 1 04327U 70009A 26036.31741344 .00000048 00000+0 12228-3 0 9995 2 04327 99.2719 341.1899 0003995 245.0591 269.1740 13.58726405775494 SL-3 R/B 1 05118U 71028B 26036.45139951 .00045937 00000+0 59263-3 0 9992 2 05118 81.2353 91.7738 0017683 47.8527 312.4223 15.58600988983649 ASTEX 1 1 05560U 71089A 26036.26629029 .00000856 00000+0 21772-3 0 9994 2 05560 92.7153 141.2692 0015311 185.9954 174.1072 14.50730504857609 SL-8 R/B 1 05730U 71119B 26036.50063616 .00013355 00000+0 69273-3 0 9994 2 05730 73.8849 235.8447 0554222 209.0767 147.8461 14.36883882650867 OAO 3 (COPERNICUS) 1 06153U 72065A 26036.51715732 .00000600 00000+0 12759-3 0 9995 2 06153 35.0054 120.6090 0007245 259.4321 117.4421 14.59968967841496 ATLAS CENTAUR R/B 1 06155U 72065B 26036.39573012 .00001932 00000+0 26679-3 0 9991 2 06155 35.0008 134.9917 0033078 98.3854 262.0598 14.77591517836485 SL-8 R/B 1 08459U 75112B 26036.50559325 .00000271 00000+0 97773-4 0 9999 2 08459 74.0594 78.1209 0015579 182.2704 177.8383 14.38187615627247 SL-3 R/B 1 10114U 77057B 26036.46516634 .00018431 00000+0 39801-3 0 9995 2 10114 97.5728 207.0007 0008198 45.5585 314.6333 15.44551887663355 SEASAT 1 1 10967U 78064A 26035.98487290 .00000419 00000+0 15572-3 0 9997 2 10967 108.0164 56.8637 0001485 291.5369 68.5618 14.46132644501783 SL-14 R/B 1 11267U 79011B 26036.18522161 .00000865 00000+0 82968-4 0 9993 2 11267 82.5258 127.4110 0016521 161.1940 198.9893 14.91866859523938 SL-8 R/B 1 11574U 79089B 26036.00765422 .00000382 00000+0 12349-3 0 9998 2 11574 74.0696 151.5384 0016394 328.5223 31.4951 14.42329472431398 SL-14 R/B 1 11672U 80005B 26036.31112938 .00000999 00000+0 98733-4 0 9995 2 11672 82.5173 337.9397 0014123 272.1636 87.7966 14.90886051471663 SL-8 R/B 1 12139U 81003B 26036.20557441 .00029627 00000+0 78631-3 0 9996 2 12139 82.9395 320.0325 0263949 292.1657 65.1755 15.09775266309777 SL-3 R/B 1 12465U 81046B 26036.45872580 .00018504 00000+0 44306-3 0 9990 2 12465 81.2349 328.4112 0020548 127.6431 232.6680 15.41085348433467 SL-3 R/B 1 12904U 81103B 26036.47468447 .00008358 00000+0 37500-3 0 9991 2 12904 81.1557 251.2188 0013989 37.4346 322.7857 15.20983190968330 SL-3 R/B 1 13068U 82013B 26036.43087536 .00006662 00000+0 29179-3 0 9995 2 13068 81.1741 198.5643 0021851 289.4123 70.4747 15.21655316399447 SL-3 R/B 1 13154U 82039B 26036.45152951 .00003614 00000+0 21934-3 0 9990 2 13154 81.1616 253.1197 0030096 69.9097 290.5363 15.09902053376777 SL-3 R/B 1 13403U 82079B 26036.50624423 .00007516 00000+0 30377-3 0 9991 2 13403 81.1436 231.0680 0024158 275.7486 84.0993 15.24331948372796 SL-14 R/B 1 13553U 82092B 26036.32893838 .00000819 00000+0 89208-4 0 9997 2 13553 82.5699 171.6578 0021522 51.4373 331.3379 14.86629713324126 SL-3 R/B 1 13819U 83010B 26036.39386399 .00020484 00000+0 42770-3 0 9991 2 13819 81.1020 41.8091 0017709 154.1595 206.0538 15.45216273352957 SL-3 R/B 1 14208U 83075B 26036.48145513 .00018166 00000+0 49060-3 0 9999 2 14208 97.6130 39.8654 0021574 350.6338 9.4501 15.37578400325206 COSMOS 1536 1 14699U 84013A 26036.53869233 .00009884 00000+0 41286-3 0 9993 2 14699 82.5479 139.7913 0015073 40.1443 320.0904 15.23394243267729 SL-14 R/B 1 14820U 84027B 26036.10147250 .00000558 00000+0 60934-4 0 9996 2 14820 82.5404 275.5828 0019533 82.0364 278.3068 14.85944265242797 SL-8 R/B 1 15483U 85006B 26036.53358718 .00000363 00000+0 12905-3 0 9998 2 15483 74.0475 320.3172 0019594 244.2216 288.5106 14.37766872149406 SL-12 R/B(2) 1 15772U 85042D 26036.33492933 .00000128 00000+0 79211-4 0 9998 2 15772 71.1084 156.0832 0035156 179.7565 240.8535 14.21972967109791 SL-14 R/B 1 15945U 85069B 26036.50002824 .00000677 00000+0 73914-4 0 9997 2 15945 82.5240 55.2091 0017423 301.7799 58.1720 14.86395094168054 SL-16 R/B 1 16182U 85097B 26036.42669459 .00000081 00000+0 64435-4 0 9993 2 16182 71.0013 208.4722 0009461 297.5011 85.8638 14.16596027 82663 SL-14 R/B 1 16496U 86006B 26036.41824164 .00001054 00000+0 10931-3 0 9999 2 16496 82.5273 290.1113 0077229 20.7926 339.6401 14.86770244144418 COSMOS 1743 1 16719U 86034A 26036.45062542 .00049714 00000+0 70529-3 0 9990 2 16719 82.5330 107.6021 0005214 60.5341 299.6433 15.56220202175234 SL-14 R/B 1 16792U 86046B 26036.47662194 .00000663 00000+0 73637-4 0 9999 2 16792 82.4820 110.6226 0022465 338.1023 21.9231 14.85559141121621 SL-14 R/B 1 16882U 86055B 26036.33251727 .00000790 00000+0 88139-4 0 9994 2 16882 82.5231 157.0766 0020387 80.2270 308.7123 14.85607859114563 AJISAI (EGS) 1 16908U 86061A 26036.50734937 -.00000098 00000+0 -31189-5 0 9995 2 16908 50.0067 192.3080 0011245 204.1489 202.5089 12.44515362463998 COSMOS 1812 1 17295U 87003A 26036.47575550 .00349314 45386-4 99481-3 0 9995 2 17295 82.4773 232.0933 0000959 331.2314 28.8908 15.93247788139315 SL-14 R/B 1 17567U 87024B 26036.52176998 .00000693 00000+0 76114-4 0 9991 2 17567 82.5295 122.9960 0018471 12.1564 348.0094 14.86101036 83355 COSMOS 1833 1 17589U 87027A 26036.22630911 .00000085 00000+0 71363-4 0 9991 2 17589 70.9208 34.2453 0024850 257.8554 101.9783 14.13055667 5736 SL-16 R/B 1 17590U 87027B 26036.29398186 -.00000049 00000+0 -49518-6 0 9996 2 17590 71.0049 344.7584 0005280 197.9155 162.1783 14.17163877 10758 SL-14 R/B 1 17912U 87038B 26036.23069030 .00000781 00000+0 87905-4 0 9994 2 17912 82.5044 327.3772 0017681 272.4979 87.4212 14.85336449 74416 COSMOS 1844 1 17973U 87041A 26036.50795294 .00000332 00000+0 19717-3 0 9990 2 17973 70.8980 102.0587 0028776 69.6740 290.7470 14.14537964999039 SL-14 R/B 1 18153U 87055B 26036.41532677 .00000738 00000+0 82212-4 0 9991 2 18153 82.4991 19.4454 0022086 118.1836 242.1615 14.85589100 65144 COSMOS 1867 1 18187U 87060A 26036.02544712 -.00000028 00000+0 27219-4 0 9993 2 18187 65.0106 38.1783 0014074 276.1781 83.7700 14.31497594 15269 SL-14 R/B 1 18749U 88001B 26036.27370356 .00000652 00000+0 72603-4 0 9990 2 18749 82.5105 225.8507 0017792 350.4713 9.6163 14.85489131 37212 COSMOS 1933 1 18958U 88020A 26036.42081322 .00006462 00000+0 31913-3 0 9995 2 18958 82.5125 282.8369 0003379 335.5977 24.5097 15.17704138 45334 SL-3 R/B 1 19046U 88032B 26036.46873229 .00009008 00000+0 42392-3 0 9998 2 19046 97.5150 19.8565 0025876 350.9219 9.1544 15.19485839 47210 SL-16 R/B 1 19120U 88039B 26036.28558624 -.00000017 00000+0 14690-4 0 9990 2 19120 71.0150 137.0683 0020780 24.0296 336.1794 14.19611627953780 COSMOS 1953 1 19210U 88050A 26036.41005372 .00014209 00000+0 52026-3 0 9996 2 19210 82.5090 190.6890 0010534 235.3834 124.6412 15.27858156 32859 SL-8 R/B 1 19257U 88053B 26036.53765028 .00000340 00000+0 11867-3 0 9993 2 19257 74.0477 171.7243 0020269 357.1579 73.5254 14.38896157971977 COSMOS 1975 1 19573U 88093A 26036.30410645 .00012410 00000+0 45946-3 0 9991 2 19573 82.5228 150.1702 0010405 285.7425 74.2666 15.27490217 14467 SL-14 R/B 1 19574U 88093B 26036.12298499 .00000549 00000+0 60311-4 0 9997 2 19574 82.5282 72.6245 0021670 142.5332 236.7970 14.85620162996202 SL-16 R/B 1 19650U 88102B 26036.48344799 .00000021 00000+0 34670-4 0 9991 2 19650 70.9969 219.2581 0012280 54.8480 305.3792 14.16146111922337 INTERCOSMOS 24 1 20261U 89080A 26036.23720595 .00000694 00000+0 20021-3 0 9992 2 20261 82.6071 125.5255 1188251 8.1734 353.6947 12.59513959662719 SL-14 R/B 1 20262U 89080C 26036.38881926 .00000476 00000+0 14466-3 0 9999 2 20262 82.5939 193.9226 1229426 258.6198 87.4615 12.50455473656113 DELTA 1 R/B 1 20323U 89089B 26035.58089040 .00000492 00000+0 13070-3 0 9992 2 20323 97.0728 248.2802 0067949 226.5532 133.0001 14.50634273890933 ARIANE 40 R/B 1 20443U 90005H 26036.15247763 .00000353 00000+0 12591-3 0 9990 2 20443 98.3153 97.7718 0009057 306.4098 53.6255 14.39848194888128 DELTA 2 R/B(1) 1 20453U 90008B 26036.30970739 .00088442 00000+0 11788-2 0 9998 2 20453 35.6065 26.6230 0096234 316.9901 42.3342 15.51488253921094 COSMOS 2058 1 20465U 90010A 26036.06991173 .00005031 00000+0 29901-3 0 9992 2 20465 82.4631 79.5628 0012114 87.9203 272.3414 15.11018598937313 SL-14 R/B 1 20466U 90010B 26036.17735919 .00000666 00000+0 77787-4 0 9994 2 20466 82.5034 297.9283 0021051 49.8961 310.4094 14.83539886923660 SL-14 R/B 1 20511U 90018B 26036.29881357 .00000531 00000+0 63722-4 0 9999 2 20511 82.5185 253.3721 0015926 193.8341 166.2439 14.82111376917782 HST 1 20580U 90037B 26036.31204604 .00009602 00000+0 32359-3 0 9992 2 20580 28.4665 260.7880 0001932 109.1408 250.9397 15.28961568768352 SL-16 R/B 1 20625U 90046B 26036.39102774 .00000028 00000+0 38969-4 0 9992 2 20625 70.9997 5.7434 0014543 344.4772 15.5903 14.15005088843829 COSMOS 2084 1 20663U 90055A 26036.50860847 .00003770 00000+0 27384-3 0 9994 2 20663 62.7897 85.3195 0022193 183.2924 176.8034 15.05442280931479 SL-6 R/B(2) 1 20666U 90055D 26036.31473833 .00004162 00000+0 31756-3 0 9995 2 20666 62.7851 3.9306 0019951 337.5810 22.4416 15.03418145933325 SL-8 R/B 1 20775U 90078B 26036.10689106 .00018839 00000+0 55697-3 0 9996 2 20775 82.9026 280.5873 0367336 123.1606 240.5423 14.87975298804451 SL-8 R/B 1 21088U 91006B 26036.51923362 .00000001 00000+0 -15021-4 0 9997 2 21088 82.9426 193.9640 0023531 123.8706 298.8502 13.77491884759642 OKEAN-3 1 21397U 91039A 26036.35938542 .00004925 00000+0 34846-3 0 9997 2 21397 82.5182 8.1545 0016392 82.4528 277.8560 15.04546571860178 COSMOS 2151 1 21422U 91042A 26036.46401820 .00002596 00000+0 20646-3 0 9991 2 21422 82.4967 114.7609 0013064 162.0220 198.1469 14.99979202858364 SL-14 R/B 1 21423U 91042B 26036.00740456 .00000468 00000+0 56199-4 0 9992 2 21423 82.4901 250.8370 0016860 353.7367 6.3634 14.81798168848238 ERS-1 1 21574U 91050A 26036.51349290 .00000475 00000+0 16657-3 0 9997 2 21574 98.7896 53.9390 0030989 298.6878 61.1195 14.39422600811109 ARIANE 40 R/B 1 21610U 91050F 26036.08616487 .00000396 00000+0 13104-3 0 9991 2 21610 98.2080 89.5353 0003605 154.2480 205.8891 14.42868764814297 INTERCOSMOS 25 1 21819U 91086A 26036.21050880 .00000954 00000+0 18452-3 0 9996 2 21819 82.6088 329.6349 1486612 186.9062 170.9281 12.11910767492751 SL-8 R/B 1 21876U 92008B 26036.45857623 .00000078 00000+0 64767-4 0 9998 2 21876 82.9271 291.7552 0033661 223.3304 312.2783 13.75969439704982 SL-8 R/B 1 21938U 92020B 26036.38933360 .00000133 00000+0 12184-3 0 9993 2 21938 82.9324 177.7364 0029506 30.3498 358.0231 13.75544445696697 USA 81 1 21949U 92023A 26035.82553383 .00000267 00000+0 91415-4 0 9992 2 21949 85.0120 150.3901 0002522 107.0297 253.1173 14.32355172 90081 COSMOS 2219 1 22219U 92076A 26035.55684955 -.00000186 00000+0 -72692-4 0 9999 2 22219 71.0589 87.3358 0020510 252.8642 107.0235 14.14077297713695 SL-16 R/B 1 22220U 92076B 26036.02629806 .00000268 00000+0 15727-3 0 9992 2 22220 70.9982 257.1797 0011761 154.0697 356.0770 14.16854195717200 COSMOS 2221 1 22236U 92080A 26036.13334266 .00002703 00000+0 23806-3 0 9992 2 22236 82.5063 310.2592 0013138 307.0507 52.9513 14.96066712775928 SL-16 R/B 1 22285U 92093B 26036.51386744 -.00000190 00000+0 -73161-4 0 9990 2 22285 71.0203 71.8143 0005068 327.2358 32.8450 14.15441546708605 COSMOS 2228 1 22286U 92094A 26036.43833109 .00003134 00000+0 26893-3 0 9993 2 22286 82.5158 268.1935 0019312 53.1392 307.1597 14.97041796771234 SL-16 R/B 1 22566U 93016B 26036.40972050 -.00000006 00000+0 21439-4 0 9993 2 22566 71.0077 282.9825 0010090 358.9252 1.1848 14.15304024697609 COSMOS 2242 1 22626U 93024A 26036.47378703 .00003401 00000+0 29701-3 0 9991 2 22626 82.5196 297.5284 0017800 56.4795 303.8125 14.96413208775571 SL-16 R/B 1 22803U 93059B 26036.36239727 .00000293 00000+0 16848-3 0 9990 2 22803 70.9893 79.3017 0019483 260.6796 99.2125 14.17225935674959 ARIANE 40 R/B 1 22830U 93061H 26036.15738119 .00000271 00000+0 11527-3 0 9994 2 22830 98.4985 105.6759 0011037 26.5461 333.6286 14.32843322689443 COSMOS 2278 1 23087U 94023A 26036.48896829 -.00000203 00000+0 -81191-4 0 9999 2 23087 71.0505 242.4675 0006480 74.1045 286.0791 14.14364522640251 SL-16 R/B 1 23088U 94023B 26036.26728460 -.00000087 00000+0 -20087-4 0 9998 2 23088 70.9999 138.9793 0004431 315.5247 44.5520 14.15003666641503 SL-16 R/B 1 23343U 94074B 26036.31822066 .00000682 00000+0 98090-4 0 9999 2 23343 97.7151 68.4409 0005934 339.2077 31.4472 14.79368711682464 SL-16 R/B 1 23405U 94077B 26036.04956519 -.00000078 00000+0 -15244-4 0 9993 2 23405 70.9814 61.1584 0004460 240.2213 119.8466 14.15556609611610 ARIANE 40+ R/B 1 23561U 95021B 26036.42180207 .00000428 00000+0 15059-3 0 9991 2 23561 98.4563 108.3309 0005893 231.9743 138.4753 14.39748308614607 SL-16 R/B 1 23705U 95058B 26036.33762799 .00000283 00000+0 16903-3 0 9991 2 23705 71.0188 248.1776 0012488 178.5752 181.5408 14.15490283563274 SL-16 R/B 1 24298U 96051B 26036.30483839 .00000086 00000+0 73168-4 0 9993 2 24298 70.7566 243.7867 0017775 193.1471 166.9188 14.12406447517070 ORBVIEW 2 (SEASTAR) 1 24883U 97037A 26036.42434854 .00000419 00000+0 16208-3 0 9995 2 24883 98.8510 199.8916 0002809 137.9775 222.1625 14.35469248503845 SL-16 R/B 1 25400U 98043G 26036.31602955 .00000120 00000+0 69262-4 0 9994 2 25400 98.8202 349.4613 0010881 106.5409 253.6966 14.26041893434371 SL-16 R/B 1 25407U 98045B 26036.29382666 -.00000194 00000+0 -74096-4 0 9998 2 25407 71.0087 249.7019 0005234 68.6719 291.4962 14.16185376422515 ISS (ZARYA) 1 25544U 98067A 26036.24398336 .00012313 00000+0 23569-3 0 9992 2 25544 51.6316 232.7490 0011153 66.4623 293.7536 15.48407263551308 CZ-4B R/B 1 25732U 99025C 26036.06596928 .00000066 00000+0 52510-4 0 9994 2 25732 98.6689 81.1107 0038176 79.2514 311.0915 14.18258696383541 OKEAN-O 1 25860U 99039A 26036.40933499 .00000990 00000+0 13686-3 0 9993 2 25860 97.9511 96.6175 0001926 89.1653 270.9779 14.80281453429618 SL-16 R/B 1 25861U 99039B 26036.14959965 .00000771 00000+0 10461-3 0 9996 2 25861 98.0034 95.2827 0014918 8.4597 351.6864 14.81684382432048 DELTA 2 R/B 1 25876U 99041E 26036.44301206 .00002894 00000+0 50282-3 0 9990 2 25876 51.7643 70.0512 0502407 253.1604 101.3663 14.11704808358471 HELIOS 1B 1 25977U 99064A 26036.42806582 .00002634 00000+0 29648-3 0 9996 2 25977 98.1728 297.7190 0001911 120.3265 239.8139 14.87563007680463 TERRA 1 25994U 99068A 26036.45686661 .00000654 00000+0 14245-3 0 9993 2 25994 97.9661 91.1117 0000977 296.5219 120.2627 14.60979165390376 SL-16 R/B 1 26070U 00006B 26036.51276126 .00000053 00000+0 51119-4 0 9996 2 26070 71.0028 165.4920 0018453 235.2985 124.6400 14.15820641344007 TITAN 4B R/B 1 26474U 00047B 26036.42573904 .00005539 00000+0 34941-3 0 9990 2 26474 67.9897 131.2168 0036907 75.1939 285.3294 15.09292442388046 ENVISAT 1 27386U 02009A 26036.36860640 .00000204 00000+0 80078-4 0 9999 2 27386 98.3675 350.7469 0001296 91.2706 69.2945 14.39024583254525 IDEFIX & ARIANE 42P R/B 1 27422U 02021B 26036.05273950 .00000405 00000+0 17034-3 0 9996 2 27422 98.5838 335.0561 0010725 285.9844 74.0157 14.31001815239358 AQUA 1 27424U 02022A 26036.52587120 .00001555 00000+0 32070-3 0 9992 2 27424 98.4119 3.3200 0001616 55.5708 55.4474 14.61895901264033 CZ-4B R/B 1 27432U 02024C 26036.10464412 .00000065 00000+0 56172-4 0 9990 2 27432 98.8908 89.6642 0051098 115.2099 274.5506 14.14541675224631 MIDORI II (ADEOS-II) 1 27597U 02056A 26036.32120866 .00000483 00000+0 20771-3 0 9992 2 27597 98.7714 354.5876 0002163 88.5139 271.6290 14.29259927205679 H-2A R/B 1 27601U 02056E 26035.90778706 .00000431 00000+0 16602-3 0 9994 2 27601 98.3143 357.5336 0068997 259.2173 164.9244 14.33736496209418 CZ-4B R/B 1 28059U 03049C 26036.40621017 .00000723 00000+0 17728-3 0 9997 2 28059 98.6842 30.0539 0047631 331.5495 28.3102 14.54983869181906 CZ-2C R/B 1 28222U 04012C 26036.14119407 .00059373 00000+0 70574-3 0 9999 2 28222 97.7307 98.4347 0016325 72.6850 287.6190 15.60807692199197 SL-16 R/B 1 28353U 04021B 26036.14133273 -.00000008 00000+0 20383-4 0 9997 2 28353 71.0005 300.8008 0002832 91.1547 268.9900 14.14589294118233 CZ-4B R/B 1 28415U 04035C 26036.50914572 .00012946 00000+0 46158-3 0 9990 2 28415 97.3544 71.1441 0034262 83.4087 277.1051 15.28461981174997 CZ-2C R/B 1 28480U 04046B 26036.23080904 .00000227 00000+0 99950-4 0 9995 2 28480 98.1998 313.2303 0138219 250.7548 107.8637 14.26980288103877 ARIANE 5 R/B 1 28499U 04049H 26036.42984539 .00001487 00000+0 16949-3 0 9991 2 28499 98.2575 203.6918 0085495 95.5928 265.5044 14.85197959141008 CZ-2D R/B 1 28738U 05024B 26036.48104797 .00052758 00000+0 71917-3 0 9990 2 28738 97.3615 50.5171 0007212 124.3423 235.8516 15.57333450134768 ALOS (DAICHI) 1 28931U 06002A 26036.30135058 .00002111 00000+0 36275-3 0 9993 2 28931 98.1167 352.4339 0002049 68.8415 291.3009 14.69700693 68725 H-2A R/B 1 28932U 06002B 26036.33466171 .00012952 00000+0 65833-3 0 9996 2 28932 98.2362 180.6072 0053127 352.5548 7.4887 15.15770419 89539 RESURS-DK 1 1 29228U 06021A 26036.19867608 .00004449 00000+0 26059-3 0 9999 2 29228 69.9352 321.0559 0004902 208.4378 151.6521 15.12548417 82617 CZ-4B R/B 1 29507U 06046C 26036.08433928 .00006380 00000+0 32581-3 0 9991 2 29507 97.5650 81.0778 0034077 23.2382 337.0382 15.16544716 55106 CZ-2C R/B 1 31114U 07010B 26036.31875821 .00000157 00000+0 91058-4 0 9999 2 31114 98.3970 151.2236 0059473 29.3813 331.0687 14.20234811975120 COSMO-SKYMED 1 1 31598U 07023A 26036.50082524 .00005490 00000+0 49109-3 0 9994 2 31598 97.8855 227.2825 0001096 74.6236 285.5105 14.96279239 10090 COSMOS 2428 1 31792U 07029A 26036.11045391 .00000377 00000+0 22813-3 0 9996 2 31792 70.9399 271.7327 0007071 313.2442 46.8088 14.12930124959491 SL-16 R/B 1 31793U 07029B 26036.06291579 .00000425 00000+0 24495-3 0 9994 2 31793 70.9731 240.9674 0001855 275.3223 255.5051 14.14828217960755 KORONAS-FOTON 1 33504U 09003A 26036.46622695 .00014523 00000+0 33399-3 0 9998 2 33504 82.4334 309.3532 0008899 276.6539 83.3694 15.42477615940770 CZ-2C R/B 1 37731U 11030B 26036.40646866 .00002016 00000+0 26002-3 0 9994 2 37731 97.8491 354.3326 0054233 95.2152 66.1569 14.81097561785317 H-2A R/B 1 38341U 12025E 26036.33485874 .00004853 00000+0 44201-3 0 9991 2 38341 98.4684 0.8140 0046157 59.3805 301.1953 14.94882985743381 SHIJIAN-16 (SJ-16) 1 39358U 13057A 26036.58293356 .00001210 00000+0 12126-3 0 9990 2 39358 74.9701 245.8660 0016967 192.3608 167.7166 14.92230101666710 SL-4 R/B 1 39679U 14021B 26036.28328120 .00017747 00000+0 40165-3 0 9999 2 39679 51.6065 135.2401 0099066 344.8941 14.9089 15.38153120651280 ALOS-2 1 39766U 14029A 26036.52564584 .00000783 00000+0 11168-3 0 9990 2 39766 97.9221 135.5860 0001500 98.1056 262.0325 14.79485605632118 YAOGAN-29 1 41038U 15069A 26036.54237876 .00000333 00000+0 47766-4 0 9998 2 41038 98.0171 64.8807 0002859 89.1370 271.0171 14.82956773551113 ASTRO-H (HITOMI) 1 41337U 16012A 26036.17505597 .00004460 00000+0 26367-3 0 9994 2 41337 30.9979 206.3331 0009885 5.6410 354.4338 15.09763790547318 HXMT (HUIYAN) 1 42758U 17034A 26036.51986391 .00008435 00000+0 42509-3 0 9992 2 42758 43.0132 195.4640 0031202 28.9728 331.2845 15.17033603477658 CZ-2C R/B 1 43521U 18054D 26036.38044796 .00374669 54628-4 96496-3 0 9992 2 43521 35.1295 165.9588 0013412 349.3571 10.6883 15.93960318423715 SAOCOM 1A 1 43641U 18076A 26036.49043568 .00001019 00000+0 13459-3 0 9991 2 43641 97.8862 225.1198 0001419 86.2944 273.8431 14.82155795396593 H-2A R/B 1 43682U 18084L 26036.51776264 .00029673 00000+0 73726-3 0 9993 2 43682 98.8756 247.0647 0026299 133.5763 226.7667 15.39926733400822 SAOCOM 1B 1 46265U 20059A 26036.52168970 .00000161 00000+0 26803-4 0 9994 2 46265 97.8858 224.2490 0001304 83.3180 276.8181 14.82158700293984 CSS (TIANHE) 1 48274U 21035A 26036.19244546 .00018681 00000+0 23497-3 0 9999 2 48274 41.4676 45.6780 0005707 3.1658 356.9216 15.59205280272535 COSMOS 2550 1 48865U 21056A 26036.10916548 .00003451 00000+0 11066-3 0 9995 2 48865 67.1448 139.4818 0008330 270.0704 89.9495 15.33832820258465 CZ-2C R/B 1 52794U 22058K 26036.40616301 .00043938 00000+0 69408-3 0 9998 2 52794 50.1890 124.0666 0042368 63.8858 296.6462 15.51968466205113 CZ-2C R/B 1 54039U 22132E 26036.49923675 .00049540 00000+0 62926-3 0 9992 2 54039 97.2960 38.9135 0017756 202.0517 157.9978 15.59071942185359 GSLV R/B 1 54149U 22138AN 26036.35992778 .00004765 00000+0 41549-3 0 9993 2 54149 87.3863 177.1808 0019318 268.9803 90.9215 14.96524545179097 XRISM 1 57800U 23137A 26036.34402464 .00009025 00000+0 51979-3 0 9999 2 57800 31.0019 132.8058 0007992 75.4775 284.6749 15.11090091132895 ACS3 1 59588U 24077B 26036.29559348 .00026707 00000+0 22092-1 0 9994 2 59588 97.2253 344.6895 0045594 179.9440 180.1736 13.88271969 89709 SZ-21 MODULE 1 66515U 25246C 26036.38462473 .00044396 00000+0 42095-3 0 9994 2 66515 41.4761 41.8476 0003081 276.8900 83.1590 15.66107693 13006